Home > Weather > Holon > Past weeks

Flag for Israel Past Weather in Holon, Israel — Yesterday and Last 2 Weeks

Now
86 °F

Passing clouds.


Feels Like: 93 °F
Forecast: 78 / 86 °F
Wind: 10 mph from Northwest

Location: Dov Airport

Current Time: Jul 29, 2016 at 3:17:33 PM

Latest Report: Jul 29, 2016 at 2:50 PM


Visibility: N/A

Pressure: 29.68 "Hg

Humidity: 66%

Dew Point: 73 °F

Location of HolonLocation

Past Weather in Holon — Graph

°F

Holon Temperature Yesterday

Maximum temperature yesterday: 86 °F (at 9:50 AM)
Minimum temperature yesterday: 79 °F (at 5:50 AM)
Average temperature yesterday: 83 °F

High & Low Weather Summary for the Past Weeks

 TemperatureHumidityPressure
High88 °F (Jul 14, 1:50 PM)89% (Jul 26, 4:50 AM)29.89 "Hg (Jul 26, 4:50 AM)
Low75 °F (Jul 16, 6:00 AM)49% (Jul 19, 3:50 PM)29.65 "Hg (Jul 19, 5:50 AM)
Average83 °F67%29.75 "Hg
* Reported Jul 14 1:50 PM — Jul 29 1:50 PM, Holon, Weather by CustomWeather, © 2016

Note: Actual official high and low records may vary slightly from our data, if they occured in-between our weather recording intervals... More about our weather records

Advertising

Holon Weather History for the Previous 24 Hours

Scroll right to see more
 ConditionsComfort  
Time TempWeatherWind HumidityBarometerVisibility
1:50 PM
Fri, Jul 29
86 °FPassing clouds.10 mph62%29.71 "HgN/A
12:50 PM86 °FPassing clouds.10 mph62%29.71 "HgN/A
11:50 AM86 °FPassing clouds.9 mph62%29.71 "HgN/A
10:50 AM84 °FPassing clouds.9 mph66%29.71 "HgN/A
9:50 AM84 °FPassing clouds.8 mph66%29.71 "HgN/A
8:50 AM82 °FPassing clouds.7 mph70%29.71 "HgN/A
7:50 AM81 °FScattered clouds.6 mph70%29.71 "HgN/A
6:50 AM77 °FPassing clouds.5 mph79%29.71 "HgN/A
5:50 AM75 °FPassing clouds.5 mph83%29.71 "HgN/A
12:50 AM79 °FPassing clouds.2 mph79%29.71 "HgN/A
11:50 PM
Thu, Jul 28
81 °FPassing clouds.2 mph74%29.71 "HgN/A
10:50 PM81 °FPassing clouds.No wind74%29.71 "HgN/A
9:50 PM81 °FPassing clouds.3 mph74%29.71 "HgN/A
8:50 PM81 °FPassing clouds.5 mph74%29.71 "HgN/A
7:50 PM82 °FPassing clouds.7 mph74%29.71 "HgN/A
6:50 PM82 °FPassing clouds.9 mph74%29.71 "HgN/A
5:50 PM84 °FPassing clouds.9 mph70%29.71 "HgN/A
4:50 PM86 °FPassing clouds.10 mph66%29.71 "HgN/A
3:50 PM86 °FScattered clouds.12 mph66%29.71 "HgN/A
Weather by CustomWeather, © 2016

See weather overviewHow to use our weather pages